TimeEST,TemperatureF,Dew PointF,Humidity,Sea Level PressureIn,VisibilityMPH,Wind Direction,Wind SpeedMPH,Gust SpeedMPH,PrecipitationIn,Events,Conditions,WindDirDegrees,DateUTC
12:54 AM,59.0,50.0,72,29.97,10.0,Variable,4.6,-,N/A,,Overcast,0,2012-12-05 05:54:00
1:54 AM,59.0,50.0,72,29.96,10.0,SSW,5.8,-,N/A,,Overcast,210,2012-12-05 06:54:00
2:54 AM,59.0,50.0,72,29.95,10.0,Variable,5.8,-,0.00,,Overcast,0,2012-12-05 07:54:00
3:54 AM,60.1,48.9,67,29.96,10.0,WSW,5.8,-,N/A,,Overcast,250,2012-12-05 08:54:00
4:54 AM,59.0,48.9,69,29.97,10.0,West,6.9,-,N/A,,Scattered Clouds,270,2012-12-05 09:54:00
5:54 AM,57.9,48.9,72,30.00,10.0,NW,5.8,-,0.00,Rain,Light Rain,310,2012-12-05 10:54:00
6:54 AM,55.9,46.9,72,30.02,10.0,WNW,5.8,-,0.00,,Overcast,300,2012-12-05 11:54:00
7:54 AM,55.9,43.0,62,30.05,10.0,WNW,9.2,-,0.00,,Overcast,300,2012-12-05 12:54:00
9:54 AM,54.0,37.9,55,30.08,10.0,WNW,11.5,17.3,N/A,,Clear,300,2012-12-05 14:54:00
10:54 AM,53.1,36.0,52,30.08,10.0,NW,9.2,-,N/A,,Clear,320,2012-12-05 15:54:00
11:54 AM,52.0,35.1,53,30.06,10.0,West,12.7,17.3,N/A,,Clear,280,2012-12-05 16:54:00
12:54 PM,52.0,35.1,53,30.06,10.0,WNW,8.1,-,N/A,,Clear,300,2012-12-05 17:54:00
1:54 PM,54.0,30.9,41,30.06,10.0,WNW,12.7,21.9,N/A,,Clear,300,2012-12-05 18:54:00
2:54 PM,55.0,32.0,42,30.06,10.0,NW,10.4,-,N/A,,Clear,320,2012-12-05 19:54:00
3:54 PM,52.0,28.9,41,30.09,10.0,WNW,13.8,21.9,N/A,,Clear,290,2012-12-05 20:54:00
4:54 PM,50.0,28.9,44,30.11,10.0,WNW,10.4,-,N/A,,Clear,290,2012-12-05 21:54:00
5:54 PM,48.9,28.0,44,30.14,10.0,NW,12.7,19.6,N/A,,Scattered Clouds,320,2012-12-05 22:54:00
6:54 PM,46.9,27.0,46,30.17,10.0,NNW,12.7,24.2,N/A,,Overcast,340,2012-12-05 23:54:00
7:54 PM,41.0,21.9,47,30.22,10.0,NNW,11.5,-,N/A,,Clear,330,2012-12-06 00:54:00
8:54 PM,39.0,19.0,45,30.24,10.0,NW,8.1,18.4,N/A,,Clear,320,2012-12-06 01:54:00
9:54 PM,37.9,19.0,47,30.25,10.0,Variable,6.9,-,N/A,,Clear,0,2012-12-06 02:54:00
10:54 PM,37.0,19.0,48,30.26,10.0,NNW,5.8,-,N/A,,Clear,340,2012-12-06 03:54:00
11:54 PM,36.0,19.0,50,30.27,10.0,NNW,10.4,17.3,N/A,,Clear,330,2012-12-06 04:54:00